Palm Springs, CA

9:14 PM PDT on May 22, 2018 (GMT -0700)
Palm Springs International

Weather History for KPSP - September, 2011

Change the Weather History Date:

Wednesday, September 21, 2011

  Actual Average Record
Temperature  
Mean Temperature 90 °F 85 °F  
Max Temperature 106 °F 99 °F 114 °F (1943)
Min Temperature 73 °F 71 °F 50 °F (1941)
Degree Days  
Heating Degree Days 0 0  
Month to date heating degree days 0 0  
Since 1 July heating degree days 0 0  
Cooling Degree Days 25 20  
Month to date cooling degree days 501 482  
Year to date cooling degree days 3516 3566  
Growing Degree Days 40 (Base 50)    
Moisture  
Dew Point 43 °F    
Average Humidity 28    
Maximum Humidity 49    
Minimum Humidity 7    
Precipitation  
Precipitation 0.00 in 0.01 in 0.90 in (1983)
Month to date precipitation 0.57 0.32  
Year to date precipitation 2.39 3.85  
Since 1 July precipitation 0.92  
Snow  
Snow 0.00 in - - ()
Month to date snowfall 0.0  
Year to date snowfall 0.0  
Snow Depth 0.00 in    
Sea Level Pressure  
Sea Level Pressure 29.78 in    
Wind  
Wind Speed 3 mph (ESE)    
Max Wind Speed 13 mph    
Max Gust Speed 18 mph    
Visibility 10 miles    
Events      
T = Trace of Precipitation, MM = Missing Value Source: NWS Daily Summary

Daily Weather History Graph

Daily Weather History Graph

Search for Another Location

Airport or City:

Astronomy

Sep. 21, 2011 Rise Set
Actual Time 6:33 AM PDT 6:44 PM PDT
Civil Twilight 6:08 AM PDT 7:09 PM PDT
Nautical Twilight 5:39 AM PDT 7:38 PM PDT
Astronomical Twilight 5:09 AM PDT 8:07 PM PDT
Moon 12:13 AM PDT (9/21) 2:42 PM PDT (9/21)
Length of Visible Light 13h 00m
Length of Day
12h 11m
Last Quarter, 37% of the Moon is Illuminated
Sep 21
Last Quarter
Sep 27
New
Oct 3
First Quarter
Oct 11
Full
Oct 19
Last Quarter

Hourly Weather History & Observations

Time (PDT) Temp. Dew Point Humidity Pressure Visibility Wind Dir Wind Speed Gust Speed Precip Events Conditions
12:53 AM 81.0 °F 50.0 °F 34% 29.77 in 10.0 mi Calm Calm - N/A   Clear
1:53 AM 80.1 °F 51.1 °F 36% 29.76 in 10.0 mi Calm Calm - N/A   Clear
3:53 AM 75.9 °F 52.0 °F 43% 29.75 in 10.0 mi Calm Calm - N/A   Clear
4:53 AM 73.9 °F 54.0 °F 50% 29.75 in 10.0 mi West 3.5 mph - N/A   Clear
5:53 AM 73.0 °F 53.1 °F 49% 29.77 in 10.0 mi Calm Calm - N/A   Clear
6:53 AM 75.9 °F 51.1 °F 42% 29.79 in 10.0 mi Calm Calm - N/A   Clear
7:53 AM 81.0 °F 50.0 °F 34% 29.81 in 10.0 mi Calm Calm - N/A   Clear
8:53 AM 88.0 °F 46.0 °F 23% 29.81 in 10.0 mi Calm Calm - N/A   Clear
9:53 AM 93.9 °F 46.0 °F 19% 29.82 in 10.0 mi Calm Calm - N/A   Clear
10:53 AM 98.1 °F 37.9 °F 12% 29.81 in 10.0 mi Calm Calm - N/A   Clear
11:53 AM 100.9 °F 39.0 °F 12% 29.80 in 10.0 mi Variable 3.5 mph - N/A   Clear
12:53 PM 104.0 °F 37.0 °F 10% 29.78 in 10.0 mi ESE 5.8 mph - N/A   Clear
1:53 PM 105.1 °F 28.9 °F 7% 29.77 in 10.0 mi SE 9.2 mph - N/A   Clear
2:53 PM 106.0 °F 28.0 °F 7% 29.75 in 10.0 mi ESE 9.2 mph 18.4 mph N/A   Clear
3:53 PM 105.1 °F 28.0 °F 7% 29.73 in 10.0 mi SE 8.1 mph - N/A   Clear
4:53 PM 104.0 °F 30.9 °F 8% 29.73 in 10.0 mi ESE 6.9 mph - N/A   Clear
5:53 PM 102.0 °F 30.0 °F 8% 29.74 in 10.0 mi East 5.8 mph - N/A   Clear
6:53 PM 98.1 °F 46.0 °F 17% 29.75 in 10.0 mi NW 13.8 mph - N/A   Clear
7:53 PM 95.0 °F 46.0 °F 19% 29.77 in 10.0 mi West 3.5 mph - N/A   Clear
8:53 PM 93.0 °F 44.1 °F 18% 29.79 in 10.0 mi WNW 5.8 mph - N/A   Clear
9:53 PM 88.0 °F 46.0 °F 23% 29.80 in 10.0 mi Calm Calm - N/A   Clear
10:53 PM 84.9 °F 48.0 °F 28% 29.81 in 10.0 mi Calm Calm - N/A   Clear
11:53 PM 84.0 °F 48.9 °F 29% 29.81 in 10.0 mi WNW 3.5 mph - N/A   Clear